Showing default

CHINASAT 2D, 43920

Orbit data source: Space-Track

CHINASAT 2D, 43920 is a payload satellite owned by PLA SSF (CN) in GEO that was launched on Thu, 10 Jan 2019 UTC via a CHANG ZHENG 3B launch vehicle from the Xichang Space Center, China (XSC). Payload-class satellites include a variety of spacecraft equipped with specific instruments for various scientific and technological missions. These include communications satellites like Starlink; space stations such as the ISS; scientific satellites like the Hubble; Earth observation satellites from companies like Planet Labs, Umbra, and HawkEye 360; GPS; miniature CubeSats for education and research; and military/defense satellites.

Not visible in the next 10 days
Identifier
43920, 2019-001A
Orbit
GEO
Country
Flag of CNCN / PRC
Related business
Manufacturer
CAST?
Mission
Operational Defense Communications
Bus & Motor
DFH-4?, DFH-4 LAE
Mass
~5,000 kg wet, ~2,500 kg dry
Launch date (UTC)
2019-01-10 (7 years ago)
Launch vehicle
CHANG ZHENG 3B
Launch site
Xichang Space Center, China (XSC)
Object type
Payload
Rocket body
Debris
Shape & HBR
Box + 2 Pan, 15.0 m
Radar Cross Section
34.063 m², Large (>1 m²)

Expand to show TLE details & history
Last TLE update: 6 hours ago

TLE from 6 hours ago
0 CHINASAT 2D
1 43920U 19001A   25311.27285663 -.00000331  00000-0  00000-0 0  9998
2 43920   0.0151 312.6866 0002172 282.5327  39.7575  1.00269571 51856
Epoch: 2025-11-07T06:32Z
TLE epoch observation values (Epoch: 2025-11-07T06:32:54.812Z)
Latitude
-0.01262°
Longitude
130.01245°
Altitude
35,779.637 km
Speed
3.075 km/s
True Right ascension
18h 19m 50s
True Declination
0° 00' 45"
Sunlit
Object was in daylight at epoch
Visualization orbit readout
Latitude
Unknown
Longitude
Unknown
Altitude
Unknown
Speed
Unknown
Apparent Right ascension
Unknown
Apparent Declination
Unknown
Sunlit
N/A
Visualization observer readout
Local Sidereal Time
09:03:46
Azimuth
Unknown
Elevation
Unknown
Doppler factor
Unknown
Orbital elements
Apogee altitude
35,797.445 km
Perigee altitude
35,779.127 km
Semi-major axis
42,166.423 km
Eccentricity
0.00022
Inclination
0.0151°
RAAN
312.6866°
Arg. of periapsis
282.5327°
True anomaly
39.77342°
Mean anomaly
39.7575°
Eccentric anomaly
39.76546°
Mean motion
0.25066 °/min
Orbital period
1,436.18 mins
BSTAR
0
Loading maneuver chart data...
Computing Atmospheric mass density...
Loading historical data...
Loading historical data...
Loading historical data...
Loading historical data...
Loading historical data...
Loading historical data...
Loading historical data...
Other satellites on launch #1 in the year 2019 (2019-01-10 UTC)

Documentation

Showing up to 5 results
|